This is the latest recevied weather packets stored in our database for station/object HK3BJ-12. If no packets are shown the sender has not sent any weather packets the latest 10 day(s).
| Time | Temp. | Humidity | Pressure | Rain* | Wind** | Luminosity | Snow |
|---|---|---|---|---|---|---|---|
| 1787979658 | 12.78° C | 88% | 1019 hPa | 0 mm | - | - | - |
| 1787978715 | 12.78° C | 87% | 1019 hPa | 0 mm | - | - | - |
| 1787977771 | 12.78° C | 85% | 1020 hPa | 0 mm | - | - | - |
| 1787976829 | 12.78° C | 83% | 1020 hPa | 0 mm | - | - | - |
| 1787975888 | 12.78° C | 81% | 1020 hPa | 0 mm | - | - | - |
| 1787974946 | 12.78° C | 79% | 1020 hPa | 0 mm | - | - | - |
| 1787974003 | 12.78° C | 76% | 1020 hPa | 0 mm | - | - | - |
| 1787973059 | 12.78° C | 73% | 1020 hPa | 0 mm | - | - | - |
| 1787972117 | 12.78° C | 68% | 1020 hPa | 0 mm | - | - | - |
| 1787971174 | 12.78° C | 65% | 1020 hPa | 0 mm | - | - | - |
| 1787970231 | 12.78° C | 61% | 1020 hPa | 0 mm | - | - | - |
| 1787969286 | 12.78° C | 58% | 1020 hPa | 0 mm | - | - | - |
| 1787968337 | 12.78° C | 55% | 1020 hPa | 0 mm | - | - | - |
| 1787967393 | 14.44° C | 55% | 1019 hPa | 0 mm | - | - | - |
| 1787966446 | 14.44° C | 55% | 1019 hPa | 0 mm | - | - | - |
| 1787965502 | 14.44° C | 55% | 1019 hPa | 0 mm | - | - | - |
| 1787964557 | 15° C | 55% | 1019 hPa | 0 mm | - | - | - |
| 1787963596 | 15° C | 55% | 1018 hPa | 0 mm | - | - | - |
| 1787962647 | 15.56° C | 55% | 1017 hPa | 0 mm | - | - | - |
| 1787961696 | 17.78° C | 45% | 1017 hPa | 0 mm | - | - | - |
| 1787960749 | 17.78° C | 45% | 1017 hPa | 0 mm | - | - | - |
| 1787959797 | 17.22° C | 45% | 1015 hPa | 0 mm | - | - | - |
| 1787958848 | 17.78° C | 45% | 1015 hPa | 0 mm | - | - | - |
| 1787957903 | 19.44° C | 45% | 1015 hPa | 0 mm | - | - | - |
| 1787956956 | 18.33° C | 42% | 1015 hPa | 0 mm | - | - | - |
* Rain latest hour (hover to see other rain measurements)
** Current wind speed in m/s (hover to see current wind gust speed)